Weather History for Lakenheath RAF, United Kingdom

Change the Weather History Date:

Thursday, April 11, 2013

  Actual Average (EGSC) Record (EGSC)
Temperature  
Mean Temperature 42 °F -  
Max Temperature 46 °F 53 °F 66 °F (2011)
Min Temperature 39 °F 40 °F 33 °F (2012)
Degree Days  
Heating Degree Days 22    
Moisture  
Dew Point 40 °F    
Average Humidity 88    
Maximum Humidity 100    
Minimum Humidity 68    
Precipitation  
Precipitation 0.02 in - - ()
Sea Level Pressure  
Sea Level Pressure 29.45 in    
Wind  
Wind Speed 8 mph ()    
Max Wind Speed 12 mph    
Max Gust Speed -    
Visibility 4.7 miles    
Events Rain    
Averages and records for this station are not official NWS values.
T = Trace of Precipitation, MM = Missing Value Source: Averaged Metar Reports

Daily Weather History Graph

Daily Weather History Graph

Search for Another Location

Airport:

Trip Planner

Search our weather history database for the weather conditions in past years. The results will help you decide how hot, cold, wet, or windy it might be!

Date:

Astronomy

Apr. 11, 2013 Rise Set
Actual Time 6:09 AM BST 7:49 PM BST
Civil Twilight 5:33 AM BST 8:25 PM BST
Nautical Twilight 4:49 AM BST 9:09 PM BST
Astronomical Twilight 4:00 AM BST 9:59 PM BST
Moon 6:22 AM BST (4/11) 9:22 PM BST (4/11)
Length of Visible Light 14h 52m
Length of Day
13h 40m
New Moon, 1% of the Moon is Illuminated
Apr 11
New Moon
Apr 18
First Quarter
Apr 25
Full
May 2
Last Quarter
May 10
New

Hourly Weather History & Observations

Time (BST) Temp. Windchill Dew Point Humidity Pressure Visibility Wind Dir Wind Speed Gust Speed Precip Events Conditions
12:56 AM 42.8 °F 37.5 °F 39.2 °F 87% 29.49 in 3.7 mi East 9.2 mph - N/A Rain Light Rain
12:59 AM 42.8 °F 37.5 °F 39.2 °F 87% 29.50 in 3.7 mi East 9.2 mph - 0.00 in Rain Light Rain
1:20 AM 41.0 °F 35.8 °F 39.2 °F 93% 29.48 in 3.1 mi East 8.1 mph - N/A   Light Drizzle
1:33 AM 41.0 °F 35.2 °F 39.2 °F 93% 29.47 in 3.1 mi East 9.2 mph - N/A   Light Drizzle
1:46 AM 41.0 °F 35.2 °F 39.2 °F 93% 29.47 in 3.1 mi East 9.2 mph - N/A Rain Light Rain
1:51 AM 41.0 °F 34.7 °F 39.2 °F 93% 29.46 in 2.5 mi East 10.4 mph - N/A Rain Light Rain
1:58 AM 41.4 °F 36.2 °F 39.9 °F 95% 29.47 in 2.5 mi ENE 8.1 mph - 0.00 in   Light Drizzle
2:32 AM 41.0 °F 34.7 °F 39.2 °F 93% 29.45 in 2.5 mi ENE 10.4 mph - N/A   Light Drizzle
2:39 AM 41.0 °F 34.7 °F 41.0 °F 100% 29.45 in 2.5 mi ENE 10.4 mph - N/A Rain Light Rain
2:47 AM 41.0 °F 34.7 °F 39.2 °F 93% 29.45 in 2.5 mi ENE 10.4 mph - N/A Rain Light Rain
2:58 AM 40.8 °F 34.5 °F 40.1 °F 97% 29.45 in 2.5 mi NE 10.4 mph - 0.00 in Rain Light Rain
3:23 AM 41.0 °F 35.2 °F 39.2 °F 93% 29.44 in 2.5 mi NE 9.2 mph - N/A Rain Light Rain
3:40 AM 41.0 °F 35.2 °F 39.2 °F 93% 29.44 in 2.5 mi NE 9.2 mph - N/A Rain Light Rain
3:42 AM 41.0 °F 35.2 °F 39.2 °F 93% 29.44 in 2.5 mi ENE 9.2 mph - N/A Rain Light Rain
3:58 AM 40.5 °F 35.1 °F 39.9 °F 98% 29.44 in 2.5 mi ENE 8.1 mph - 0.02 in Rain Light Rain
4:04 AM 41.0 °F 34.7 °F 39.2 °F 93% 29.43 in 3.1 mi ENE 10.4 mph - N/A Rain Light Rain
4:09 AM 41.0 °F 34.7 °F 39.2 °F 93% 29.43 in 3.1 mi NE 10.4 mph - N/A Rain Light Rain
4:38 AM 41.0 °F 35.2 °F 39.2 °F 93% 29.43 in 3.1 mi NE 9.2 mph - N/A Rain Light Rain
4:58 AM 40.3 °F 34.9 °F 39.7 °F 98% 29.44 in 3.1 mi ENE 8.1 mph - 0.00 in   Light Drizzle
5:30 AM 41.0 °F 35.2 °F 39.2 °F 93% 29.42 in 3.1 mi NE 9.2 mph - N/A   Light Drizzle
5:34 AM 41.0 °F 35.2 °F 39.2 °F 93% 29.42 in 3.7 mi NE 9.2 mph - N/A   Light Drizzle
5:44 AM 41.0 °F 34.7 °F 39.2 °F 93% 29.42 in 3.7 mi NE 10.4 mph - N/A   Overcast
5:58 AM 40.3 °F 34.9 °F 39.7 °F 98% 29.43 in 3.7 mi NE 8.1 mph - 0.00 in   Overcast
6:03 AM 41.0 °F 35.2 °F 39.2 °F 93% 29.42 in 3.1 mi NE 9.2 mph - N/A   Overcast
6:05 AM 41.0 °F 35.2 °F 39.2 °F 93% 29.42 in 2.5 mi NE 9.2 mph - N/A   Overcast
6:06 AM 41.0 °F 34.7 °F 39.2 °F 93% 29.42 in 2.5 mi NE 10.4 mph - N/A   Overcast
6:17 AM 41.0 °F 34.7 °F 39.2 °F 93% 29.42 in - NE 10.4 mph - N/A   Overcast
6:22 AM 41.0 °F 34.3 °F 39.2 °F 93% 29.42 in 2.5 mi NE 11.5 mph - N/A   Partly Cloudy
6:58 AM 39.9 °F 34.5 °F 39.4 °F 98% 29.43 in 2.5 mi NE 8.1 mph - N/A   Clear
7:58 AM 40.5 °F 35.1 °F 39.7 °F 97% 29.44 in 2.5 mi NE 8.1 mph - N/A   Mostly Cloudy
7:59 AM 41.0 °F 34.7 °F 39.2 °F 93% 29.43 in 3.1 mi NE 10.4 mph - N/A   Scattered Clouds
8:58 AM 41.7 °F 36.7 °F 40.1 °F 94% 29.46 in 3.7 mi NE 8.1 mph - N/A   Overcast
9:58 AM 43.9 °F 39.3 °F 39.0 °F 83% 29.47 in 6.2 mi NE 8.1 mph - N/A   Overcast
9:59 AM 44.6 °F 40.7 °F 39.2 °F 81% 29.46 in 6.2 mi NE 6.9 mph - N/A   Overcast
10:11 AM 44.6 °F 40.2 °F 39.2 °F 81% 29.46 in 6.2 mi ENE 8.1 mph - N/A   Overcast
10:26 AM 44.6 °F 42.2 °F 39.2 °F 81% 29.47 in 6.2 mi NE 4.6 mph - N/A   Overcast
10:28 AM 44.6 °F 41.4 °F 37.4 °F 76% 29.47 in 6.2 mi NE 5.8 mph - N/A   Overcast
10:45 AM 44.6 °F 42.2 °F 37.4 °F 76% 29.47 in 6.2 mi Variable 4.6 mph - N/A   Overcast
10:58 AM 44.8 °F 40.4 °F 38.3 °F 78% 29.48 in 6.2 mi NE 8.1 mph - N/A   Overcast
11:17 AM 44.6 °F 40.7 °F 37.4 °F 76% 29.48 in 6.2 mi NNE 6.9 mph - N/A   Mostly Cloudy
11:22 AM 44.6 °F 42.2 °F 37.4 °F 76% 29.48 in 6.2 mi North 4.6 mph - N/A   Mostly Cloudy
11:29 AM 44.6 °F 43.1 °F 37.4 °F 76% 29.48 in 6.2 mi NE 3.5 mph - N/A   Overcast
11:31 AM 44.6 °F 42.2 °F 37.4 °F 76% 29.48 in 6.2 mi NE 4.6 mph - N/A   Overcast
11:32 AM 44.6 °F 42.2 °F 37.4 °F 76% 29.48 in 6.2 mi NE 4.6 mph - N/A   Overcast
11:47 AM 44.6 °F 41.4 °F 37.4 °F 76% 29.48 in 6.2 mi NE 5.8 mph - N/A   Overcast
11:58 AM 45.5 °F 43.2 °F 37.4 °F 73% 29.49 in 6.2 mi ENE 4.6 mph - N/A   Overcast
12:30 PM 46.4 °F - 37.4 °F 71% 29.47 in 6.2 mi Calm Calm - N/A   Overcast
12:58 PM 46.2 °F - 36.7 °F 69% 29.49 in 6.2 mi East 2.3 mph - N/A   Overcast
1:24 PM 46.4 °F 44.3 °F 37.4 °F 71% 29.48 in 6.2 mi South 4.6 mph - N/A   Overcast
1:58 PM 46.6 °F - 36.5 °F 68% 29.49 in 6.2 mi SE 3.5 mph - N/A   Overcast
2:07 PM 46.4 °F 45.2 °F 37.4 °F 71% 29.48 in 6.2 mi SE 3.5 mph - N/A   Overcast
2:41 PM 46.4 °F 42.4 °F 37.4 °F 71% 29.48 in 6.2 mi SSE 8.1 mph - N/A   Light Drizzle
2:51 PM 46.4 °F 43.5 °F 37.4 °F 71% 29.48 in 6.2 mi South 5.8 mph - N/A   Overcast
2:58 PM 46.4 °F 43.5 °F 37.8 °F 72% 29.49 in 6.2 mi South 5.8 mph - 0.00 in   Overcast
3:43 PM 46.4 °F 42.9 °F 39.2 °F 76% 29.47 in 6.2 mi South 6.9 mph - N/A   Overcast
3:58 PM 46.4 °F 42.9 °F 39.0 °F 75% 29.48 in 6.2 mi South 6.9 mph - N/A   Overcast
4:27 PM 46.4 °F 42.9 °F 39.2 °F 76% 29.47 in 6.2 mi SSE 6.9 mph - N/A   Overcast
4:58 PM 45.3 °F 42.3 °F 40.3 °F 83% 29.47 in 6.2 mi South 5.8 mph - N/A   Overcast
5:58 PM 45.5 °F 42.5 °F 41.4 °F 85% 29.47 in 6.2 mi SSE 5.8 mph - N/A   Overcast
6:58 PM 45.3 °F 42.3 °F 41.7 °F 87% 29.47 in 6.2 mi SE 5.8 mph - N/A   Overcast
7:49 PM 44.6 °F 40.7 °F 41.0 °F 87% 29.45 in 5.6 mi SE 6.9 mph - N/A   Overcast
7:58 PM 45.0 °F 40.1 °F 41.9 °F 89% 29.46 in 5.6 mi SE 9.2 mph - N/A   Mostly Cloudy
8:05 PM 44.6 °F 40.7 °F 41.0 °F 87% 29.45 in 6.2 mi SE 6.9 mph - N/A   Light Drizzle
8:15 PM 44.6 °F 40.2 °F 42.8 °F 93% 29.45 in 6.2 mi ESE 8.1 mph - N/A   Overcast
8:19 PM 44.6 °F 40.2 °F 42.8 °F 93% 29.45 in 6.2 mi ESE 8.1 mph - N/A   Overcast
8:27 PM 44.6 °F 38.8 °F 42.8 °F 93% 29.45 in 6.2 mi SE 11.5 mph - N/A   Overcast
8:31 PM 44.6 °F 39.7 °F 42.8 °F 93% 29.45 in 5.6 mi SE 9.2 mph - N/A   Overcast
8:43 PM 44.6 °F 40.2 °F 42.8 °F 93% 29.45 in 5.6 mi SE 8.1 mph - N/A   Overcast
8:53 PM 44.6 °F 39.2 °F 41.0 °F 87% 29.45 in 5.0 mi ESE 10.4 mph - N/A   Overcast
8:58 PM 44.1 °F 38.6 °F 41.7 °F 91% 29.46 in 5.0 mi SE 10.4 mph - 0.00 in   Overcast
9:09 PM 44.6 °F 39.7 °F 41.0 °F 87% 29.45 in 5.6 mi ESE 9.2 mph - N/A   Overcast
9:10 PM 44.6 °F 40.2 °F 41.0 °F 87% 29.45 in 5.6 mi ESE 8.1 mph - N/A   Overcast
9:13 PM 42.8 °F 38.6 °F 41.0 °F 93% 29.44 in 5.6 mi ESE 6.9 mph - N/A   Overcast
9:18 PM 42.8 °F 37.5 °F 41.0 °F 93% 29.44 in 5.6 mi ESE 9.2 mph - N/A   Overcast
9:31 PM 42.8 °F 38.0 °F 41.0 °F 93% 29.44 in 5.0 mi SE 8.1 mph - N/A   Overcast
9:32 PM 42.8 °F 38.0 °F 41.0 °F 93% 29.44 in 5.0 mi SE 8.1 mph - N/A   Light Drizzle
9:44 PM 42.8 °F 38.6 °F 41.0 °F 93% 29.45 in 5.0 mi ESE 6.9 mph - N/A Rain Light Rain
9:49 PM 42.8 °F 38.0 °F 41.0 °F 93% 29.45 in 5.0 mi ESE 8.1 mph - N/A   Overcast
9:58 PM 42.8 °F 38.6 °F 41.2 °F 94% 29.46 in 5.0 mi ESE 6.9 mph - 0.00 in   Overcast
10:04 PM 42.8 °F 39.3 °F 41.0 °F 93% 29.45 in 5.0 mi ESE 5.8 mph - N/A Rain Light Rain
10:07 PM 42.8 °F 39.3 °F 41.0 °F 93% 29.45 in 3.7 mi ESE 5.8 mph - N/A Rain Light Rain
10:16 PM 42.8 °F 37.5 °F 41.0 °F 93% 29.45 in 5.0 mi ESE 9.2 mph - N/A   Overcast
10:19 PM 42.8 °F 38.0 °F 41.0 °F 93% 29.45 in 5.0 mi ESE 8.1 mph - N/A   Light Drizzle
10:29 PM 42.8 °F 38.0 °F 41.0 °F 93% 29.45 in 5.0 mi ESE 8.1 mph - N/A   Overcast
10:58 PM 41.7 °F 36.1 °F 40.5 °F 95% 29.46 in 5.0 mi SE 9.2 mph - 0.00 in   Overcast
10:59 PM 41.0 °F 35.8 °F 41.0 °F 100% 29.44 in 5.0 mi SE 8.1 mph - N/A Rain Light Rain
11:20 PM 41.0 °F 35.8 °F 41.0 °F 100% 29.43 in 3.7 mi SE 8.1 mph - N/A   Mostly Cloudy
11:31 PM 41.0 °F 35.2 °F 41.0 °F 100% 29.43 in 3.7 mi SE 9.2 mph - N/A   Mostly Cloudy
11:44 PM 41.0 °F 35.2 °F 41.0 °F 100% 29.43 in 3.7 mi SE 9.2 mph - N/A   Overcast
11:58 PM 41.5 °F 35.9 °F 40.6 °F 97% 29.44 in 3.7 mi SE 9.2 mph - 0.00 in   Overcast